CW3847 La Orotava ES current weather conditions

sailwx.info

Wind from 347 at 2 knots gusting 4

Air temperature 18.3° C
Dewpoint 17.5° C

Last reported at 2016-Jun-29 20:45 UTC.
Time now 2016-Jun-29 21:54 UTC

Location: N 28°23' W 016°31'.
View on Google Maps.

See reports from other nearby stations

  
Tides and Currents Weather Stations Pressure Air Temp Water Temp Dewpoint Dewpoint Depression Visibility Wind Speed Wind Dir Waves Ship Positions
date/time (UTC)wind fromknots sea level pressurealtimeterstation pressurevisibilityair tempwater tempwave heightnotes
2016-Jun-29 20:45 347 2 gusting 4 18.3
2016-Jun-29 20:40 343 2 gusting 5 18.3
2016-Jun-29 20:35 351 2 gusting 5 18.3
2016-Jun-29 20:30 010 2 gusting 4 18.3
2016-Jun-29 20:25 020 2 gusting 5 18.3
2016-Jun-29 20:20 016 2 gusting 6 18.3
2016-Jun-29 20:15 004 2 gusting 6 18.3
2016-Jun-29 20:10 351 2 gusting 6 18.3
2016-Jun-29 20:05 346 3 gusting 6 18.9
2016-Jun-29 20:00 344 2 gusting 4 18.9
2016-Jun-29 19:55 347 2 gusting 5 18.9
2016-Jun-29 19:50 350 2 gusting 5 18.3
2016-Jun-29 19:45 358 1 gusting 3 18.9
2016-Jun-29 19:40 007 1 gusting 4 18.9
2016-Jun-29 19:35 008 2 gusting 4 18.9
2016-Jun-29 19:30 021 1 gusting 4 18.9
2016-Jun-29 19:25 036 2 gusting 6 18.9
2016-Jun-29 19:20 032 2 gusting 6 18.9
2016-Jun-29 19:15 013 3 gusting 6 18.9
2016-Jun-29 19:10 001 3 gusting 6 18.9
2016-Jun-29 19:05 359 3 gusting 6 18.9
2016-Jun-29 19:00 357 3 gusting 6 18.9
2016-Jun-29 18:55 357 2 gusting 6 18.9
2016-Jun-29 18:50 355 2 gusting 4 18.9
2016-Jun-29 18:45 344 2 gusting 5 18.9
2016-Jun-29 18:40 349 3 gusting 5 18.9
2016-Jun-29 18:35 359 2 gusting 5 18.9
2016-Jun-29 18:30 359 2 gusting 6 18.9
2016-Jun-29 18:25 355 2 gusting 6 18.9
2016-Jun-29 18:20 345 3 gusting 6 18.9
2016-Jun-29 18:15 351 3 gusting 6 18.9
2016-Jun-29 18:10 017 2 gusting 6 18.9
2016-Jun-29 18:05 016 2 gusting 7 18.9
2016-Jun-29 18:00 359 3 gusting 7 18.9
2016-Jun-29 17:55 353 3 gusting 7 18.9
2016-Jun-29 17:50 351 3 gusting 7 19.4
2016-Jun-29 17:45 353 2 gusting 5 19.4
2016-Jun-29 17:40 359 1 gusting 4 18.9
2016-Jun-29 17:35 003 2 gusting 5 18.9
2016-Jun-29 17:30 354 3 gusting 5 18.9
2016-Jun-29 17:25 348 3 gusting 6 18.9
2016-Jun-29 15:10 356 4 gusting 6 20.0
2016-Jun-29 15:05 002 4 gusting 7 20.6
2016-Jun-29 15:00 013 4 gusting 8 20.6
2016-Jun-29 14:55 005 3 gusting 8 20.6
2016-Jun-29 14:50 009 2 gusting 6 20.6
2016-Jun-29 14:45 022 3 gusting 6 20.6
2016-Jun-29 14:40 018 3 gusting 7 20.6
2016-Jun-29 14:35 010 3 gusting 7 20.6
2016-Jun-29 14:30 358 4 gusting 8 20.6
2016-Jun-29 14:25 355 4 gusting 9 20.6
2016-Jun-29 14:20 352 4 gusting 9 20.6
2016-Jun-29 14:15 359 3 gusting 6 20.6
2016-Jun-29 14:10 354 5 gusting 9 20.6
2016-Jun-29 14:05 351 5 gusting 9 20.6
2016-Jun-29 14:00 003 4 gusting 8 21.1
2016-Jun-29 13:55 357 4 gusting 8 21.1
2016-Jun-29 13:50 358 4 gusting 9 21.1
2016-Jun-29 13:45 355 4 gusting 9 21.1
2016-Jun-29 13:40 343 5 gusting 9 21.1
2016-Jun-29 13:35 344 5 gusting 9 21.1
2016-Jun-29 13:30 351 4 gusting 9 21.1
2016-Jun-29 13:25 008 4 gusting 7 20.6
2016-Jun-29 13:20 023 4 gusting 7 20.6
2016-Jun-29 13:15 007 5 gusting 11 20.6
2016-Jun-29 13:10 349 6 gusting 11 20.6
2016-Jun-29 13:05 348 5 gusting 10 20.6
2016-Jun-29 13:00 352 4 gusting 7 20.6
2016-Jun-29 12:55 355 4 gusting 8 20.6
2016-Jun-29 12:50 349 4 gusting 8 20.6
2016-Jun-29 12:45 345 4 gusting 7 20.6
2016-Jun-29 12:40 001 3 gusting 7 20.6
2016-Jun-29 12:35 358 4 gusting 6 20.6
2016-Jun-29 12:30 353 4 gusting 8 20.6
2016-Jun-29 12:25 356 3 gusting 8 20.6
2016-Jun-29 12:20 015 2 gusting 6 20.6
2016-Jun-29 12:15 040 2 gusting 6 20.6
2016-Jun-29 12:10 027 2 gusting 5 20.6
2016-Jun-29 12:05 016 2 gusting 5 20.6
2016-Jun-29 12:00 355 2 gusting 6 20.0
2016-Jun-29 11:55 353 3 gusting 8 20.0
2016-Jun-29 11:50 013 3 gusting 8 20.0
2016-Jun-29 11:45 017 3 gusting 7 19.4
2016-Jun-29 11:40 020 3 gusting 7 20.0
2016-Jun-29 11:35 011 3 gusting 6 20.0
2016-Jun-29 11:30 010 3 gusting 6 20.0
2016-Jun-29 11:25 010 4 gusting 8 20.0
2016-Jun-29 11:20 003 5 gusting 8 20.0
2016-Jun-29 11:15 008 4 gusting 9 20.0
2016-Jun-29 11:10 013 4 gusting 9 20.0
2016-Jun-29 11:05 005 4 gusting 9 20.0
2016-Jun-29 11:00 005 3 gusting 9 20.0
2016-Jun-29 10:55 014 3 gusting 7 20.0
2016-Jun-29 10:50 008 5 gusting 9 19.4
2016-Jun-29 10:45 007 5 gusting 9 19.4
2016-Jun-29 10:40 013 4 gusting 9 19.4
2016-Jun-29 10:35 013 4 gusting 9 19.4
2016-Jun-29 10:30 008 4 gusting 9 20.0
2016-Jun-29 10:25 013 4 gusting 7 19.4
2016-Jun-29 10:20 015 4 gusting 7 19.4
2016-Jun-29 10:15 015 4 gusting 7 20.0
2016-Jun-29 10:10 010 4 gusting 8 20.0
2016-Jun-29 10:05 009 4 gusting 8 20.0
2016-Jun-29 10:00 006 5 gusting 9 20.0
2016-Jun-29 09:55 358 3 gusting 9 20.0
2016-Jun-29 09:50 353 1 gusting 4 20.0
2016-Jun-29 09:45 352 2 gusting 4 20.0
2016-Jun-29 09:40 358 3 gusting 6 20.0
2016-Jun-29 09:35 353 3 gusting 7 20.0
2016-Jun-29 09:30 348 4 gusting 7 20.0
2016-Jun-29 09:25 356 3 gusting 7 20.0
2016-Jun-29 09:20 005 1 gusting 3 20.0
2016-Jun-29 09:15 359 1 gusting 4 19.4
2016-Jun-29 09:10 358 1 gusting 4 19.4
2016-Jun-29 09:05 003 3 gusting 5 19.4
2016-Jun-29 09:00 009 3 gusting 5 19.4
2016-Jun-29 08:55 015 3 gusting 6 19.4
2016-Jun-29 08:50 023 3 gusting 6 19.4
2016-Jun-29 08:45 040 1 gusting 6 19.4
2016-Jun-29 08:40 042 1 gusting 4 19.4
2016-Jun-29 08:35 041 1 gusting 4 18.9
2016-Jun-29 08:30 038 1 gusting 5 18.9
2016-Jun-29 08:25 033 2 gusting 5 18.9
2016-Jun-29 08:20 033 2 gusting 5 18.9
2016-Jun-29 08:15 038 1 gusting 4 18.3
2016-Jun-29 08:10 038 2 gusting 4 18.3
2016-Jun-29 08:05 027 2 gusting 6 18.3
2016-Jun-29 08:00 009 2 gusting 6 18.3
2016-Jun-29 07:55 005 2 gusting 5 18.3
2016-Jun-29 07:50 007 1 gusting 4 18.3
2016-Jun-29 07:45 357 2 gusting 4 18.3
2016-Jun-29 07:40 353 1 gusting 4 18.3
2016-Jun-29 07:35 345 1 gusting 3 18.3
2016-Jun-29 07:30 338 1 gusting 4 18.3
2016-Jun-29 07:25 329 2 gusting 4 18.3
2016-Jun-29 07:20 324 0 gusting 4 18.3
2016-Jun-29 07:15 326 0 gusting 2 18.3
2016-Jun-29 07:10 326 0 gusting 2 18.3
2016-Jun-29 07:05 326 0 gusting 2 18.3
2016-Jun-29 07:00 326 0 gusting 2 18.3
2016-Jun-29 06:55 326 0 gusting 2 18.3
2016-Jun-29 06:50 326 0 gusting 2 18.3
2016-Jun-29 06:45 327 18.3
2016-Jun-29 06:40 326 0 gusting 2 18.3
2016-Jun-29 06:35 326 0 gusting 2 18.3
2016-Jun-29 06:30 326 0 gusting 2 18.3
2016-Jun-29 06:25 327 0 gusting 3 18.3
2016-Jun-29 06:20 344 1 gusting 3 18.3
2016-Jun-29 06:15 011 0 gusting 2 18.3
2016-Jun-29 06:10 025 0 gusting 2 18.3
2016-Jun-29 06:05 027 0 gusting 2 18.3
2016-Jun-29 06:00 028 0 gusting 2 18.3
2016-Jun-29 05:55 028 1 gusting 3 18.3
2016-Jun-29 05:50 028 1 gusting 3 18.3
2016-Jun-29 05:45 032 1 gusting 2 18.3
2016-Jun-29 05:40 038 0 gusting 2 18.3
2016-Jun-29 05:35 043 0 gusting 3 18.3
2016-Jun-29 05:30 043 1 gusting 4 17.8
2016-Jun-29 05:25 043 1 gusting 4 17.8
2016-Jun-29 05:20 043 0 gusting 2 17.8
2016-Jun-29 05:15 043 1 gusting 5 17.8
2016-Jun-29 05:10 041 1 gusting 5 17.8
2016-Jun-29 05:05 025 0 gusting 2 17.8
2016-Jun-29 05:00 032 1 gusting 4 17.8
2016-Jun-29 04:55 040 2 gusting 5 17.8
2016-Jun-29 04:50 046 2 gusting 5 17.8
2016-Jun-29 04:45 045 1 gusting 5 17.8
2016-Jun-29 04:40 046 1 gusting 5 17.8
2016-Jun-29 04:35 056 1 gusting 4 17.8
2016-Jun-29 04:30 049 2 gusting 6 17.8
2016-Jun-29 04:25 035 2 gusting 6 17.8
2016-Jun-29 04:20 019 1 gusting 4 18.3
2016-Jun-29 04:15 012 0 gusting 3 18.3
2016-Jun-29 04:10 012 1 gusting 3 18.3
2016-Jun-29 04:05 012 1 gusting 3 18.3
2016-Jun-29 04:00 012 1 gusting 3 17.8
2016-Jun-29 03:55 012 1 gusting 4 17.8
2016-Jun-29 03:50 012 1 gusting 4 17.8
2016-Jun-29 03:45 012 1 gusting 3 17.8
2016-Jun-29 03:40 012 0 gusting 3 17.8
2016-Jun-29 03:35 012 0 gusting 2 17.8
2016-Jun-29 03:30 012 0 gusting 2 17.8
2016-Jun-29 03:25 012 0 gusting 2 17.8
2016-Jun-29 03:20 012 0 gusting 3 17.8
2016-Jun-29 03:15 012 0 gusting 3 17.8
2016-Jun-29 03:10 012 1 gusting 2 17.8
2016-Jun-29 03:05 012 1 gusting 2 17.8
2016-Jun-29 03:00 012 0 gusting 2 17.8
2016-Jun-29 02:55 013 1 gusting 6 17.8
2016-Jun-29 02:50 013 1 gusting 6 18.3
2016-Jun-29 02:45 013 1 gusting 4 17.8
2016-Jun-29 02:40 013 2 gusting 4 18.3
2016-Jun-29 02:35 013 2 gusting 4 18.3
2016-Jun-29 02:30 013 1 gusting 3 18.3
2016-Jun-29 02:25 013 1 gusting 3 18.3
2016-Jun-29 02:20 013 1 gusting 3 18.3
2016-Jun-29 02:15 013 2 gusting 4 18.3
2016-Jun-29 02:10 013 2 gusting 4 18.3
2016-Jun-29 02:05 014 1 gusting 3 18.3
2016-Jun-29 02:00 013 1 gusting 3 18.3
2016-Jun-29 01:55 013 1 gusting 3 18.3
2016-Jun-29 01:50 013 1 gusting 3 18.3
2016-Jun-29 01:45 013 1 gusting 3 18.3
2016-Jun-29 01:40 013 1 gusting 3 18.3
2016-Jun-29 01:35 013 1 gusting 2 18.3
2016-Jun-29 01:30 013 1 gusting 2 18.3
2016-Jun-29 01:25 014 0 gusting 2 18.3
2016-Jun-29 01:20 014 1 gusting 4 18.3
2016-Jun-29 01:15 013 1 gusting 4 18.3
2016-Jun-29 01:10 013 1 gusting 3 18.3
2016-Jun-29 01:05 013 1 gusting 4 18.3
2016-Jun-29 01:00 013 1 gusting 4 18.3
2016-Jun-29 00:55 013 1 gusting 3 18.3
2016-Jun-29 00:50 014 1 gusting 3 18.3
2016-Jun-29 00:45 014 1 gusting 4 18.3
2016-Jun-29 00:40 015 1 gusting 4 18.3
2016-Jun-29 00:35 015 1 gusting 3 18.3
2016-Jun-29 00:30 016 1 gusting 3 18.3
2016-Jun-29 00:25 015 1 gusting 3 18.3
2016-Jun-29 00:20 015 1 gusting 6 18.3
2016-Jun-29 00:15 013 2 gusting 6 18.3
2016-Jun-29 00:10 005 2 gusting 6 18.3
2016-Jun-29 00:05 356 1 gusting 6 18.3
2016-Jun-29 00:00 352 0 gusting 6 18.3
2016-Jun-28 23:55 350 0 gusting 2 18.3
2016-Jun-28 23:50 349 1 gusting 3 18.3
2016-Jun-28 23:45 349 1 gusting 3 18.3
2016-Jun-28 23:40 350 0 gusting 2 18.3
2016-Jun-28 23:35 350 18.3
2016-Jun-28 23:30 350 18.3
2016-Jun-28 23:25 349 0 gusting 2 18.3
2016-Jun-28 23:20 349 1 gusting 4 18.3
2016-Jun-28 23:15 349 1 gusting 4 18.3
2016-Jun-28 23:10 349 1 gusting 3 18.3
2016-Jun-28 23:05 349 1 gusting 3 18.9
2016-Jun-28 23:00 349 1 gusting 3 18.9
2016-Jun-28 22:55 349 1 gusting 3 18.9
2016-Jun-28 22:50 350 0 gusting 3 18.9
2016-Jun-28 22:45 350 0 gusting 2 18.9
2016-Jun-28 22:40 350 18.9
2016-Jun-28 22:35 350 18.3
2016-Jun-28 22:30 350 0 gusting 1 18.9
2016-Jun-28 22:25 350 0 gusting 1 18.9
2016-Jun-28 22:20 349 0 gusting 1 18.9
2016-Jun-28 22:15 349 0 gusting 1 18.9
2016-Jun-28 22:10 350 0 gusting 2 18.9
2016-Jun-28 22:05 349 0 gusting 2 18.9
2016-Jun-28 22:00 349 1 gusting 2 18.9
2016-Jun-28 21:55 349 1 gusting 2 18.9
2016-Jun-28 21:50 348 1 gusting 2 18.9
2016-Jun-28 21:45 342 1 gusting 4 18.9
2016-Jun-28 21:40 334 0 gusting 4 18.9
2016-Jun-28 21:35 328 0 gusting 1 18.9
2016-Jun-28 21:30 329 0 gusting 1 18.9
2016-Jun-28 21:25 333 0 gusting 2 18.9
2016-Jun-28 21:20 338 0 gusting 2 18.9
2016-Jun-28 21:15 343 18.9
2016-Jun-28 21:10 343 18.9
2016-Jun-28 21:05 343 18.9
2016-Jun-28 21:00 343 18.9
2016-Jun-28 20:55 343 18.9
2016-Jun-28 20:50 344 18.9
2016-Jun-28 20:45 344 0 gusting 2 18.9
2016-Jun-28 20:40 344 1 gusting 3 18.9
2016-Jun-28 20:35 343 1 gusting 3 18.9
2016-Jun-28 20:30 344 2 gusting 4 18.9
2016-Jun-28 20:25 345 2 gusting 4 18.9
2016-Jun-28 20:20 346 1 gusting 3 18.9
2016-Jun-28 20:15 345 1 gusting 3 18.9
2016-Jun-28 20:10 345 0 gusting 3 18.9
2016-Jun-28 20:05 346 0 gusting 2 18.9
2016-Jun-28 20:00 345 1 gusting 2 18.9
2016-Jun-28 19:55 345 1 gusting 2 19.4
2016-Jun-28 19:50 345 1 gusting 4 19.4
2016-Jun-28 19:45 345 0 gusting 4 19.4
2016-Jun-28 19:40 344 0 gusting 2 19.4
2016-Jun-28 19:35 344 1 gusting 3 19.4
2016-Jun-28 19:30 344 1 gusting 4 19.4
2016-Jun-28 19:25 346 2 gusting 4 19.4
2016-Jun-28 19:20 348 1 gusting 4 19.4
2016-Jun-28 19:15 350 1 gusting 4 19.4
2016-Jun-28 19:10 353 2 gusting 4 19.4
2016-Jun-28 19:05 355 2 gusting 4 19.4
2016-Jun-28 19:00 358 1 gusting 4 19.4
2016-Jun-28 18:55 003 1 gusting 3 19.4
2016-Jun-28 18:50 358 1 gusting 4 19.4
2016-Jun-28 18:45 349 2 gusting 5 19.4
2016-Jun-28 18:40 345 2 gusting 5 19.4
2016-Jun-28 18:35 358 1 gusting 4 19.4
2016-Jun-28 18:30 013 1 gusting 4 19.4
2016-Jun-28 18:25 012 1 gusting 4 19.4
2016-Jun-28 18:20 005 1 gusting 4 19.4
2016-Jun-28 18:15 009 1 gusting 4 19.4
2016-Jun-28 18:10 019 1 gusting 3 19.4
2016-Jun-28 18:05 019 1 gusting 3 20.0
2016-Jun-28 18:00 020 1 gusting 3 20.0
2016-Jun-28 17:55 020 1 gusting 3 20.0
2016-Jun-28 17:50 020 1 gusting 3 20.0
2016-Jun-28 17:45 018 1 gusting 3 19.4
2016-Jun-28 17:40 024 2 gusting 4 20.0
2016-Jun-28 17:35 034 1 gusting 4 20.0
2016-Jun-28 17:30 020 1 gusting 3 20.0
2016-Jun-28 17:25 339 1 gusting 4 20.0
2016-Jun-28 17:20 335 1 gusting 4 19.4
2016-Jun-28 17:15 347 1 gusting 3 19.4
2016-Jun-28 17:10 345 1 gusting 4 19.4
2016-Jun-28 17:05 347 1 gusting 5 19.4
2016-Jun-28 17:00 357 2 gusting 5 19.4
2016-Jun-28 16:55 345 2 gusting 4 19.4
2016-Jun-28 16:50 332 1 gusting 4 19.4
2016-Jun-28 16:45 354 1 gusting 4 19.4
2016-Jun-28 16:40 350 1 gusting 5 19.4
2016-Jun-28 16:35 344 2 gusting 5 19.4
2016-Jun-28 16:30 356 1 gusting 4 19.4
2016-Jun-28 16:25 026 1 gusting 4 19.4
2016-Jun-28 16:20 020 2 gusting 5 19.4
2016-Jun-28 16:15 009 2 gusting 6 20.0
2016-Jun-28 16:10 006 2 gusting 6 20.0
2016-Jun-28 16:05 353 2 gusting 5 20.0
2016-Jun-28 16:00 359 2 gusting 6 20.0
2016-Jun-28 15:55 010 2 gusting 6 20.0
2016-Jun-28 15:50 359 1 gusting 5 20.0
2016-Jun-28 15:45 335 1 gusting 3 20.0
2016-Jun-28 15:40 334 1 gusting 3 20.0
2016-Jun-28 15:35 335 2 gusting 5 20.0
2016-Jun-28 15:30 340 2 gusting 5 20.0
2016-Jun-28 15:25 346 2 gusting 5 20.0
2016-Jun-28 15:20 001 2 gusting 6 20.0
2016-Jun-28 15:15 357 3 gusting 6 20.0
2016-Jun-28 15:10 341 3 gusting 6 20.0
2016-Jun-28 15:05 339 2 gusting 6 20.0
2016-Jun-28 15:00 346 2 gusting 5 19.4
2016-Jun-28 14:55 358 2 gusting 5 19.4
2016-Jun-28 14:50 358 2 gusting 5 19.4
2016-Jun-28 14:45 343 3 gusting 7 19.4
2016-Jun-28 14:40 358 3 gusting 7 19.4
2016-Jun-28 14:35 010 2 gusting 5 19.4
2016-Jun-28 14:30 357 2 gusting 7 19.4
2016-Jun-28 14:25 001 3 gusting 7 19.4
2016-Jun-28 14:20 006 3 gusting 7 18.9
2016-Jun-28 14:15 006 3 gusting 7 18.9
2016-Jun-28 14:10 006 3 gusting 7 18.9
2016-Jun-28 14:05 011 3 gusting 7 18.9
2016-Jun-28 14:00 028 3 gusting 6 18.9
2016-Jun-28 13:55 030 3 gusting 7 18.9
2016-Jun-28 13:50 021 3 gusting 7 18.9
2016-Jun-28 13:45 025 3 gusting 7 18.9
2016-Jun-28 13:40 019 3 gusting 7 18.9
2016-Jun-28 13:35 027 3 gusting 6 18.9
2016-Jun-28 13:30 037 3 gusting 6 18.9
2016-Jun-28 13:25 026 3 gusting 8 19.4
2016-Jun-28 13:20 002 4 gusting 8 19.4
2016-Jun-28 13:15 349 4 gusting 7 19.4
2016-Jun-28 13:10 001 3 gusting 7 19.4
2016-Jun-28 13:05 011 3 gusting 7 20.0
2016-Jun-28 13:00 016 3 gusting 7 20.0
2016-Jun-28 12:55 006 2 gusting 6 20.0
2016-Jun-28 12:50 006 2 gusting 6 20.0
2016-Jun-28 12:45 011 3 gusting 6 20.0
2016-Jun-28 12:40 357 3 gusting 6 20.0
2016-Jun-28 12:35 355 2 gusting 6 20.0
2016-Jun-28 12:30 349 3 gusting 6 20.0
2016-Jun-28 12:25 339 4 gusting 8 20.0
2016-Jun-28 12:20 334 4 gusting 8 20.0
2016-Jun-28 12:15 332 4 gusting 7 20.0
2016-Jun-28 12:10 343 3 gusting 7 20.0
2016-Jun-28 12:05 347 3 gusting 7 20.0
2016-Jun-28 12:00 350 3 gusting 6 20.0
2016-Jun-28 11:55 001 3 gusting 6 20.6
2016-Jun-28 11:50 355 2 gusting 6 20.0
2016-Jun-28 11:45 001 2 gusting 7 20.0
2016-Jun-28 11:40 014 2 gusting 7 20.0
2016-Jun-28 11:35 016 3 gusting 6 20.0
2016-Jun-28 11:30 018 2 gusting 6 20.6
2016-Jun-28 11:25 037 1 gusting 3 20.0
2016-Jun-28 11:20 032 2 gusting 6 20.0
2016-Jun-28 11:15 020 2 gusting 6 20.6
2016-Jun-28 11:10 019 2 gusting 6 20.6
2016-Jun-28 11:05 004 2 gusting 7 20.6
2016-Jun-28 11:00 336 2 gusting 7 20.6
2016-Jun-28 10:55 350 2 gusting 5 20.0
2016-Jun-28 10:50 022 1 gusting 4 20.0
2016-Jun-28 10:45 028 1 gusting 5 20.0
2016-Jun-28 10:40 008 3 gusting 6 20.0
2016-Jun-28 10:35 005 3 gusting 6 20.0
2016-Jun-28 10:30 008 3 gusting 8 20.0
2016-Jun-28 10:25 007 3 gusting 8 20.0
2016-Jun-28 10:20 006 3 gusting 6 20.0
2016-Jun-28 10:15 008 3 gusting 6 20.0
2016-Jun-28 10:10 009 3 gusting 6 20.0
2016-Jun-28 10:05 358 3 gusting 7 20.6
2016-Jun-28 10:00 006 4 gusting 8 20.6
2016-Jun-28 09:55 011 4 gusting 8 20.6
2016-Jun-28 09:50 009 3 gusting 7 20.6
2016-Jun-28 09:45 016 2 gusting 8 20.6
2016-Jun-28 09:40 025 2 gusting 8 20.6
2016-Jun-28 09:35 015 3 gusting 7 20.0
2016-Jun-28 09:30 017 4 gusting 7 20.0
2016-Jun-28 09:25 023 3 gusting 7 20.0
2016-Jun-28 09:20 017 4 gusting 8 20.0
2016-Jun-28 09:15 008 4 gusting 8 20.0
2016-Jun-28 09:10 353 4 gusting 8 20.0
2016-Jun-28 09:05 348 4 gusting 7 19.4
2016-Jun-28 09:00 351 3 gusting 7 19.4
2016-Jun-28 08:55 003 3 gusting 6 19.4
2016-Jun-28 08:50 007 2 gusting 6 19.4
2016-Jun-28 08:45 354 2 gusting 6 18.9
2016-Jun-28 08:40 348 2 gusting 6 19.4
2016-Jun-28 08:35 343 2 gusting 4 19.4
2016-Jun-28 08:30 347 1 gusting 3 18.9
2016-Jun-28 08:25 342 1 gusting 4 18.9
2016-Jun-28 08:20 334 1 gusting 4 18.3
2016-Jun-28 08:15 328 1 gusting 3 18.3
2016-Jun-28 08:10 327 0 gusting 2 18.3
2016-Jun-28 08:05 326 0 gusting 1 18.3
2016-Jun-28 08:00 326 0 gusting 2 18.3
2016-Jun-28 07:55 324 1 gusting 3 18.3
2016-Jun-28 07:50 347 1 gusting 3 18.3
2016-Jun-28 07:45 094 0 gusting 3 18.3
2016-Jun-28 07:40 120 18.3
2016-Jun-28 07:35 120 17.8
2016-Jun-28 07:30 128 0 gusting 3 17.8
2016-Jun-28 07:25 141 1 gusting 3 17.8
2016-Jun-28 07:20 158 0 gusting 2 17.8
2016-Jun-28 07:15 158 0 gusting 1 17.8
2016-Jun-28 07:10 158 0 gusting 2 17.8
2016-Jun-28 07:05 158 0 gusting 2 17.2
2016-Jun-28 07:00 159 0 gusting 4 17.2
2016-Jun-28 06:55 164 2 gusting 6 17.2
2016-Jun-28 06:50 155 2 gusting 6 17.2
2016-Jun-28 06:45 107 1 gusting 4 17.2
2016-Jun-28 06:40 082 0 gusting 3 17.2
2016-Jun-28 06:35 079 0 gusting 3 17.8
2016-Jun-28 06:30 081 1 gusting 5 17.8
2016-Jun-28 06:25 077 2 gusting 6 17.8
2016-Jun-28 06:20 065 2 gusting 6 17.8
2016-Jun-28 06:15 083 1 gusting 5 17.8
2016-Jun-28 06:10 151 1 gusting 5 17.8
2016-Jun-28 06:05 154 1 gusting 3 17.8
2016-Jun-28 06:00 156 2 gusting 6 17.8
2016-Jun-28 05:55 156 3 gusting 9 17.8
2016-Jun-28 05:50 158 3 gusting 9 17.2
2016-Jun-28 05:45 166 2 gusting 6 17.2
2016-Jun-28 05:40 167 3 gusting 6 17.2
2016-Jun-28 05:35 167 4 gusting 7 17.8
2016-Jun-28 05:30 167 3 gusting 7 17.8
2016-Jun-28 05:25 174 2 gusting 6 17.8
2016-Jun-28 05:20 162 1 gusting 4 17.8
2016-Jun-28 05:15 112 0 gusting 4 17.8
2016-Jun-28 05:10 075 0 gusting 3 17.8
2016-Jun-28 05:05 071 17.8
2016-Jun-28 05:00 070 17.8
2016-Jun-28 04:55 071 0 gusting 2 17.8
2016-Jun-28 04:50 070 0 gusting 2 17.8
2016-Jun-28 04:45 071 0 gusting 2 17.8
2016-Jun-28 04:40 071 0 gusting 2 17.8
2016-Jun-28 04:35 071 0 gusting 2 17.8
2016-Jun-28 04:30 079 1 gusting 3 17.8
2016-Jun-28 04:25 101 1 gusting 3 17.8
2016-Jun-28 04:20 139 1 gusting 4 17.8
2016-Jun-28 04:15 152 1 gusting 4 17.8
2016-Jun-28 04:10 170 0 gusting 3 17.8
2016-Jun-28 04:05 171 0 gusting 3 17.8
2016-Jun-28 04:00 171 0 gusting 3 17.8
2016-Jun-28 03:55 170 0 gusting 3 17.8
2016-Jun-28 03:50 173 1 gusting 6 17.8
2016-Jun-28 03:45 170 3 gusting 6 17.8
2016-Jun-28 03:40 168 2 gusting 6 17.8
2016-Jun-28 03:35 172 2 gusting 6 17.8
2016-Jun-28 03:30 173 3 gusting 6 17.8
2016-Jun-28 03:25 171 3 gusting 6 17.8
2016-Jun-28 03:20 173 2 gusting 5 17.8
2016-Jun-28 03:15 182 1 gusting 5 17.8
2016-Jun-28 03:10 190 1 gusting 3 17.8
2016-Jun-28 03:05 193 0 gusting 2 17.8
2016-Jun-28 03:00 193 1 gusting 4 17.8
2016-Jun-28 02:55 185 1 gusting 4 17.8
2016-Jun-28 02:50 176 2 gusting 4 17.8
2016-Jun-28 02:45 166 2 gusting 5 17.8
2016-Jun-28 02:40 154 2 gusting 5 17.8
2016-Jun-28 02:35 144 2 gusting 5 17.8
2016-Jun-28 02:30 118 1 gusting 4 17.8
2016-Jun-28 02:25 087 1 gusting 3 17.8
2016-Jun-28 02:20 080 1 gusting 3 17.2
2016-Jun-28 02:15 076 1 gusting 3 17.2
2016-Jun-28 02:10 068 1 gusting 3 17.2
2016-Jun-28 02:05 060 0 gusting 2 17.2
2016-Jun-28 02:00 059 0 gusting 2 17.2
2016-Jun-28 01:55 058 0 gusting 2 17.2
2016-Jun-28 01:50 058 0 gusting 3 17.2
2016-Jun-28 01:45 058 1 gusting 3 17.2
2016-Jun-28 01:40 057 1 gusting 3 17.2
2016-Jun-28 01:35 054 1 gusting 4 17.8
2016-Jun-28 01:30 041 1 gusting 4 17.8
2016-Jun-28 01:25 028 2 gusting 5 17.8
2016-Jun-28 01:20 029 2 gusting 5 17.8
2016-Jun-28 01:15 025 1 gusting 3 17.8
2016-Jun-28 01:10 016 0 gusting 3 17.8
2016-Jun-28 01:05 024 0 gusting 3 17.8
2016-Jun-28 01:00 064 1 gusting 3 17.8
2016-Jun-28 00:55 098 1 gusting 5 17.8
2016-Jun-28 00:50 126 1 gusting 5 18.3
2016-Jun-28 00:45 151 1 gusting 5 17.8
2016-Jun-28 00:40 156 2 gusting 6 17.8
2016-Jun-28 00:35 153 2 gusting 6 17.8
2016-Jun-28 00:30 153 3 gusting 6 17.8
2016-Jun-28 00:25 161 2 gusting 6 17.8
2016-Jun-28 00:20 167 3 gusting 7 17.8
2016-Jun-28 00:15 156 4 gusting 8 17.8
2016-Jun-28 00:10 153 4 gusting 8 17.8
2016-Jun-28 00:05 159 3 gusting 7 17.8
2016-Jun-28 00:00 158 3 gusting 6 17.8
2016-Jun-27 23:55 160 3 gusting 6 17.8
2016-Jun-27 23:50 160 3 gusting 6 17.8
2016-Jun-27 23:45 148 2 gusting 6 17.2
2016-Jun-27 23:40 027 0 gusting 5 17.2
2016-Jun-27 23:35 340 17.8
2016-Jun-27 23:30 339 17.8
2016-Jun-27 23:25 339 17.8
2016-Jun-27 23:20 340 0 gusting 1 17.8
2016-Jun-27 23:15 339 0 gusting 1 17.8
2016-Jun-27 23:10 340 0 gusting 1 17.8
2016-Jun-27 23:05 17.8
2016-Jun-27 23:00 339 17.8
2016-Jun-27 22:55 339 0 gusting 2 17.8
2016-Jun-27 22:50 339 0 gusting 2 17.8
2016-Jun-27 22:45 339 1 gusting 3 17.8
2016-Jun-27 22:40 339 1 gusting 3 17.8
2016-Jun-27 22:35 339 0 gusting 2 17.8
2016-Jun-27 22:30 339 0 gusting 2 17.8
2016-Jun-27 22:25 339 0 gusting 3 18.3
2016-Jun-27 22:20 339 1 gusting 4 18.3
2016-Jun-27 22:15 339 2 gusting 4 18.3
2016-Jun-27 22:10 340 1 gusting 4 18.3
2016-Jun-27 22:05 340 0 gusting 2 18.3
2016-Jun-27 22:00 341 18.3
2016-Jun-27 21:55 341 18.3
2016-Jun-27 21:50 341 18.3
2016-Jun-27 21:45 340 0 gusting 1 18.3
2016-Jun-27 21:40 340 0 gusting 1 18.3
2016-Jun-27 21:35 340 0 gusting 1 18.3
2016-Jun-27 21:30 340 0 gusting 1 18.3
2016-Jun-27 21:25 340 0 gusting 2 18.3
2016-Jun-27 21:20 340 0 gusting 2 18.3
2016-Jun-27 21:15 340 1 gusting 3 18.3
2016-Jun-27 21:10 341 1 gusting 4 18.3
2016-Jun-27 21:05 344 2 gusting 4 18.3
2016-Jun-27 21:00 347 1 gusting 4 18.3